#timestamp,LO_Frequency,Hit,StdDev 
1511978415.7,286046997.8,N
1511978435.5,286046997.4,N
1511978455.3,286046995.3,N
1511978475.2,286046996.5,N
1511978495.0,286046998.8,N
1511978495.9,286046998.8,N
1511978515.7,286047000.1,N
1511978535.6,286047003.9,N
1511978555.4,286047001.4,N
1511978575.2,286047001.7,N
1511978595.1,286047001.5,N
1511978596.0,286047001.5,N
1511978615.8,286047003.6,N
1511978635.6,286047001.9,N
1511978655.5,286047002.0,N
1511978675.3,286047002.3,N
1511978695.1,286047004.9,N
1511978715.9,286047012.1,Y
1511978735.7,286047010.3,P
1511978755.5,286047010.1,N
1511978775.4,286047011.0,N
1511978795.2,286047007.1,N
1511978815.0,286047005.1,N
1511978815.9,286047005.1,N
1511978835.7,286047001.3,N
1511978855.6,286047001.2,N
1511978875.4,286047004.3,N
1511978895.2,286047005.4,N
1511978915.1,286047008.5,N
1511978916.0,286047008.5,N
1511978935.8,286047004.5,N
1511978955.6,286047009.3,N
1511978975.5,286047010.1,N
1511978995.3,286047010.4,Y
1511979015.1,286047001.7,P
1511979035.9,286047006.8,N
1511979055.7,286047008.3,P
1511979075.5,286047008.1,Y
1511979095.4,286046998.3,P
1511979115.2,286046997.2,N
1511979135.0,286046997.2,N
1511979135.9,286046997.2,N
1511979155.8,286046998.1,N
1511979175.6,286046996.8,N
1511979195.4,286047002.1,N
1511979215.3,286047004.0,N
1511979235.1,286047003.9,N
1511979236.0,286047003.9,N
1511979255.8,286046999.8,N
1511979275.7,286047002.3,N
1511979295.5,286047007.5,N
1511979315.3,286047007.3,N
1511979335.1,286047005.7,N
1511979355.9,286047004.9,N
1511979375.7,286047003.7,N
1511979395.5,286047003.3,N
1511979415.4,286047001.3,N
1511979435.2,286047003.6,N
1511979455.0,286047003.0,N
1511979455.9,286047003.0,N
1511979475.8,286047005.5,N
1511979495.6,286047001.8,N
1511979515.4,286047000.1,N
1511979535.3,286047002.3,N
1511979555.1,286047001.6,N
1511979556.0,286047001.6,N
1511979575.8,286047005.4,N
1511979595.7,286047005.5,N
1511979615.5,286047010.5,Y
1511979635.3,286047005.2,P
1511979655.2,286047003.6,N
1511979675.9,286046999.7,N
1511979695.7,286047003.8,N
1511979715.5,286047000.2,N
1511979735.4,286047004.2,N
1511979755.2,286047005.5,N
1511979775.0,286047005.3,N
1511979775.9,286047005.3,N
1511979795.8,286047008.8,Y
1511979815.6,286047003.7,P
1511979835.4,286047002.9,P
1511979855.3,286047006.4,P
1511979875.1,286047008.6,Y
1511979895.8,286047003.1,P
1511979915.7,286047001.7,P
1511979935.5,286046999.1,N
1511979955.3,286046995.7,N
1511979975.2,286046998.0,N
1511979995.9,286046997.0,N
1511980015.7,286046994.7,N
1511980035.6,286046990.4,N
1511980055.4,286046992.5,N
1511980075.2,286046987.0,Y
1511980095.1,286046989.7,P
1511980096.0,286046989.7,N
1511980115.8,286046991.5,N
1511980135.6,286046986.6,Y
1511980155.5,286046993.2,P
1511980175.3,286046992.4,P
1511980195.1,286046997.7,P
1511980215.9,286046997.9,N
1511980235.7,286046998.9,N
1511980255.5,286046997.2,N
1511980275.4,286046997.0,N
1511980295.2,286046999.6,N
1511980315.0,286046998.8,N
1511980315.9,286046998.8,N
1511980335.8,286047002.8,N
1511980355.6,286047001.7,N
1511980375.4,286046999.4,N
1511980395.2,286047001.0,N
1511980415.1,286047006.0,N
1511980416.0,286047006.0,N
1511980435.8,286047003.8,N
1511980455.6,286047000.8,N
1511980475.5,286047000.6,N
1511980495.3,286047003.7,N
1511980515.1,286047007.0,N
1511980535.9,286047011.6,N
1511980555.7,286047015.3,Y
1511980575.5,286047014.4,P
1511980595.4,286047017.6,N
1511980615.2,286047018.1,N
1511980635.0,286047017.8,N
1511980635.9,286047017.8,N
1511980655.8,286047020.0,Y
1511980675.6,286047004.9,P
1511980695.4,286047003.1,N
1511980715.3,286047005.1,N
1511980735.1,286047006.5,N
1511980736.0,286047006.5,N
1511980755.8,286047005.3,N
1511980775.7,286047004.8,N
1511980795.5,286047002.4,N
1511980815.3,286047001.2,N
1511980835.2,286046994.9,N
1511980855.9,286046997.3,N
1511980875.7,286046997.3,N
1511980895.5,286046998.1,N
1511980915.4,286047002.8,N
1511980935.2,286047004.6,N
1511980955.0,286047007.4,N
1511980955.9,286047007.4,N
1511980975.8,286047008.4,N
1511980995.6,286047004.7,N
1511981015.4,286047005.0,N
1511981035.3,286047004.8,N
1511981055.1,286047004.1,N
1511981056.0,286047004.1,N
1511981075.8,286046999.7,N
1511981095.7,286047000.4,N
1511981115.5,286047000.2,N
1511981135.3,286047004.5,N
1511981155.2,286047008.1,N
1511981175.9,286047009.3,N
1511981195.7,286047007.2,N
1511981215.5,286047007.0,N
1511981235.4,286047004.9,N
1511981255.2,286047005.5,N
1511981275.0,286047005.2,N
1511981275.9,286047005.2,N
1511981295.8,286047001.8,N
1511981315.6,286047000.1,N
1511981335.4,286046997.6,N
1511981355.3,286046991.9,N
1511981375.1,286046988.7,N
1511981395.8,286046989.7,N
1511981415.7,286046990.0,N
1511981435.5,286046989.3,N
1511981455.3,286046985.7,N
1511981475.2,286046986.8,N
1511981495.9,286046982.8,N
1511981515.7,286046982.2,N
1511981535.6,286046982.0,N
1511981555.4,286046983.6,N
1511981575.2,286046983.8,N
1511981595.0,286046983.8,N
1511981596.0,286046983.8,N
1511981615.8,286046983.4,N
1511981635.6,286046981.5,N
1511981655.4,286046979.9,N
1511981675.3,286046977.7,N
1511981695.1,286046980.4,N
1511981715.8,286046978.3,N
1511981735.7,286046976.3,N
1511981755.5,286046980.1,N
1511981775.3,286046977.9,N
1511981795.2,286046977.6,N
1511981815.9,286046977.5,N
1511981835.7,286046980.4,N
1511981855.6,286046981.1,N
1511981875.4,286046984.9,N
1511981895.2,286046982.5,Y
1511981915.1,286046995.4,P
1511981916.0,286046995.4,N
1511981935.8,286046997.5,N
1511981955.6,286046990.1,N
1511981975.5,286046991.4,N
1511981995.3,286046994.7,N
